User: anonymous   Login
Location: Mentone
(34.5413°N, 85.5351°W)
Time: 08:06:39
(UTC-05:00)
Language:

ADEOS Rocket - Orbit

View from above orbital plane
View from above orbital plane
View from above satellite
View from above satellite

Ground track
Ground track

The orbit data is extracted from the following two-line orbital elements,

1 24279U 96046C   14295.15797227  .00000055  00000-0  11718-3 0  7461
2 24279 098.7318 346.9079 0299602 241.1022 177.9427 13.46996382893783
Epoch (UTC): 22 October 2014 03:47:28
Eccentricity: 0.0299602
inclination: 98.7318°
perigee height: 860 km
apogee height: 1307 km
right ascension of ascending node: 346.9079°
argument of perigee: 241.1022°
revolutions per day: 13.46996382
mean anomaly at epoch: 177.9427°
orbit number at epoch: 89378

The dashed part of the orbit path shows where the satellite is in the earth's shadow,  

DLR